Dewpoint
49 49 49 49 49 50 51 52 52 51 51 51 51 51 51 52 52 38 20 18 28 38 55 56 47 49 47 44 44 43 37 31 32 33 31 34 33 34 33 34 29 30 29 31 37
46 46 47 48 49 49 49 50 50 51 51 51 51 51 51 52 49 37 26 28 39 42 37 41 44 47 44 43 43 41 39 35 33 33 32 35 37 38 35 35 35 32 31 34 38
49 48 47 46 46 47 49 49 49 50 51 51 51 51 51 52 28 11 25 39 42 49 27 42 44 45 42 42 42 41 38 38 35 35 38 38 38 39 37 36 36 34 35 34 36
50 49 49 49 48 46 46 48 49 49 49 50 51 51 51 48 2 29 49 56 62 51 29 31 42 41 38 38 40 39 41 39 37 37 38 38 39 39 39 38 38 37 36 34 34
49 49 49 50 49 49 48 47 46 48 49 49 49 50 47 40 24 14 30 25 46 47 30 32 35 39 36 39 38 38 37 38 39 38 38 39 39 39 38 39 38 36 33 32 34
49 49 48 48 48 49 50 49 49 47 46 48 48 49 45 36 35 24 39 26 17 37 36 29 25 30 28 29 29 34 37 35 34 35 34 35 34 35 35 35 32 31 30 33 35
48 48 48 48 47 48 49 48 48 49 48 45 47 45 42 39 42 43 42 38 23 16 16 37 30 26 25 23 24 23 21 22 22 21 24 26 25 25 27 30 31 30 30 31 34
48 49 48 48 47 47 47 49 49 48 47 48 45 43 36 42 44 43 43 39 36 32 18 20 35 29 25 25 24 22 22 18 19 22 23 24 20 23 26 29 29 30 30 30 32
47 48 48 47 47 47 48 49 48 48 47 47 43 40 34 40 40 43 42 35 26 28 16 17 26 28 25 24 21 22 15 13 14 14 20 23 19 22 27 28 27 28 29 29 30
47 48 48 47 47 48 49 47 46 45 44 42 41 36 38 22 36 32 39 37 23 14 13 14 27 25 23 22 8 16 11 18 12 17 20 20 23 24 25 27 28 29 29 30 31
47 48 48 48 47 48 47 41 36 37 40 34 34 34 31 34 35 29 30 34 24 15 7 15 17 22 18 19 17 14 14 14 14 23 23 24 24 25 26 27 26 26 27 28 30
47 47 47 47 47 48 45 36 36 37 33 36 36 37 37 36 31 32 25 20 20 14 10 14 13 17 22 22 20 20 18 19 20 25 24 23 24 25 26 26 27 27 27 29 33
48 47 47 47 48 42 40 38 39 38 33 33 34 34 34 36 34 27 32 21 17 14 10 6 8 14 24 23 23 23 21 20 18 22 22 21 19 20 24 28 28 29 31 32 34
48 48 48 48 41 41 40 39 44 43 30 27 32 32 32 31 28 28 28 22 18 13 11 8 7 12 19 23 24 19 26 25 25 22 18 23 19 21 22 25 27 25 26 27 33
48 48 48 47 42 38 39 44 43 37 15 12 26 32 31 27 23 24 26 24 21 15 9 9 7 7 13 22 27 21 23 25 24 21 21 22 22 24 26 24 24 24 24 27 39
48 47 47 44 43 42 44 43 39 28 16 17 19 18 22 29 29 27 25 24 25 16 13 11 14 8 10 15 23 21 19 20 22 22 17 19 21 17 22 23 24 24 27 37 45
47 46 47 44 38 43 44 39 26 20 19 18 20 19 18 19 25 27 26 19 20 20 16 14 11 11 10 14 19 18 15 13 12 13 14 18 20 17 24 26 25 24 26 41 47
47 47 45 43 44 45 41 32 20 17 18 23 22 16 15 22 19 20 23 23 19 19 18 15 12 12 11 10 16 16 15 12 8 10 16 18 20 22 25 26 27 28 30 43 47
46 42 40 42 44 44 37 22 18 24 23 23 20 19 15 18 21 21 20 28 27 22 15 17 15 15 12 11 12 16 15 17 13 22 20 21 23 24 25 26 28 30 38 43 46
42 38 38 44 45 42 31 21 24 26 25 23 22 20 18 17 16 22 22 27 27 27 29 18 14 15 14 11 11 11 15 14 14 9 14 19 20 18 21 20 29 34 37 43 47
38 33 38 46 44 36 26 25 27 26 26 22 23 22 19 19 18 16 25 30 29 25 30 27 17 16 14 12 10 11 12 13 12 18 14 16 18 25 22 22 26 33 39 44 46
36 28 36 45 33 32 27 28 28 26 27 26 26 23 19 23 23 16 18 24 31 29 23 32 26 16 13 15 13 10 11 11 8 10 15 19 16 26 25 24 30 31 38 44 47
33 33 38 41 27 29 32 30 30 29 29 28 26 25 25 25 22 25 27 31 30 31 26 31 27 18 15 15 16 12 11 13 19 17 12 12 13 25 26 26 29 34 40 44 47
33 27 31 35 35 31 29 28 27 29 29 27 26 27 25 23 23 25 27 26 27 31 32 31 28 28 15 16 16 13 12 11 11 11 17 13 15 18 25 28 35 36 41 44 46
33 30 34 25 28 31 31 29 27 27 32 31 24 24 26 25 25 25 27 29 26 31 36 30 24 27 27 27 28 21 14 13 10 11 11 16 19 21 24 27 33 37 41 44 45
33 32 33 30 32 28 28 29 27 29 27 27 27 28 30 28 26 26 28 30 29 29 34 34 25 26 21 23 25 25 21 14 13 12 11 13 14 19 24 35 36 36 40 42 44
37 39 36 30 26 25 25 28 28 30 29 31 31 30 29 29 32 32 31 31 31 33 31 30 27 23 19 21 24 21 21 18 14 14 15 14 14 25 26 31 35 37 39 41 43
Wind_Speed
17 17 17 17 19 20 20 19 19 20 20 20 20 20 21 21 22 4 16 16 10 8 8 11 10 4 5 6 5 4 6 16 14 9 15 5 6 3 1 8 8 8 11 10 1
20 20 20 20 18 17 18 19 20 19 18 19 20 21 22 23 7 13 20 18 21 16 10 13 12 13 6 7 8 10 12 19 13 15 17 10 7 13 8 21 23 11 15 9 11
18 18 19 19 21 21 20 19 19 20 19 17 17 19 20 20 8 12 11 30 26 22 11 10 13 14 12 6 10 11 26 26 16 20 6 13 23 5 14 23 24 20 30 10 15
17 17 18 18 19 20 20 21 20 20 19 18 17 17 19 4 12 2 13 11 11 17 16 13 12 13 12 18 15 9 19 31 20 13 7 22 12 25 21 28 25 28 24 16 17
19 19 19 18 19 19 19 20 21 20 18 17 15 15 7 5 13 14 24 15 9 5 14 17 20 16 15 11 15 18 23 16 18 19 21 19 25 25 28 34 22 24 24 23 22
19 19 20 20 20 20 20 20 20 20 19 17 15 13 6 27 9 14 16 12 4 6 5 13 14 17 9 11 12 8 16 18 12 22 22 27 29 10 25 29 26 26 29 23 21
21 20 20 21 22 23 23 22 21 20 21 18 15 13 17 35 9 17 26 10 7 9 12 16 6 12 8 7 6 7 12 16 20 19 15 21 18 22 36 22 25 28 28 27 25
22 22 22 23 23 23 24 25 26 26 24 19 14 11 15 8 17 24 24 18 20 18 5 11 11 12 4 3 1 3 2 10 4 6 9 10 20 29 23 21 28 25 24 22 27
24 23 23 24 23 24 25 27 29 27 19 12 7 7 17 13 10 21 24 18 12 18 12 9 13 12 5 17 12 2 20 19 12 19 14 12 23 28 15 14 27 27 27 25 27
23 23 22 23 25 24 25 28 21 3 7 7 7 4 10 7 9 7 10 27 11 11 8 11 8 14 17 19 31 14 12 11 18 6 8 18 23 31 32 17 26 24 25 26 26
24 23 23 22 22 21 21 9 3 1 1 6 9 12 20 8 14 7 6 15 13 8 17 15 18 36 39 31 15 19 25 22 17 3 9 14 19 30 27 17 25 28 26 29 25
25 25 23 21 22 22 8 2 3 2 12 14 24 31 34 21 15 18 19 9 13 25 19 13 45 31 21 24 29 21 26 26 25 13 8 22 23 27 28 26 24 29 29 25 15
24 24 23 22 23 4 3 6 9 12 7 12 15 12 16 16 21 31 11 9 13 18 35 42 41 21 25 28 26 29 31 30 30 5 7 17 22 25 25 13 16 21 21 17 16
22 22 21 22 5 6 9 3 11 9 6 10 6 9 7 8 12 38 11 11 10 28 24 28 35 29 25 33 27 39 25 24 22 7 13 3 15 24 28 26 19 23 16 15 7
23 23 20 12 12 6 5 14 14 2 7 2 3 3 5 12 7 11 35 20 17 17 15 21 27 43 33 34 32 22 19 20 16 15 14 9 12 9 7 23 25 19 22 13 5
23 23 20 9 4 10 6 14 2 2 10 4 5 17 7 9 16 8 20 24 9 14 21 15 12 27 34 20 26 10 7 4 3 6 18 17 14 17 14 27 19 17 9 4 10
23 24 17 10 5 5 7 4 4 8 8 4 9 20 16 27 4 4 7 28 19 20 19 10 19 3 17 15 16 17 16 6 7 10 12 7 14 26 16 19 22 22 13 7 12
25 23 5 6 3 6 1 2 8 4 8 13 12 8 17 19 20 21 6 10 27 10 14 14 10 20 20 17 17 33 25 15 12 9 5 20 14 9 32 31 25 20 9 14 18
22 7 5 3 2 7 4 5 4 4 5 11 13 7 5 13 13 17 11 8 6 24 8 19 14 9 24 14 27 14 29 14 5 3 3 8 6 8 14 12 14 11 11 17 19
11 6 6 15 6 4 2 4 4 5 9 8 3 5 6 14 9 17 11 19 12 15 9 5 7 16 22 17 28 23 19 18 14 11 8 6 7 11 11 13 8 8 12 16 17
4 4 7 10 2 2 1 5 6 10 10 3 2 7 9 13 7 6 7 17 21 29 12 5 3 2 18 28 22 13 22 7 14 7 7 3 9 10 9 11 8 11 15 20 23
5 4 8 1 1 0 3 4 6 9 7 5 5 10 10 12 6 3 7 10 19 21 13 6 3 7 24 12 29 25 19 21 20 21 7 3 6 6 12 11 9 14 19 18 17
6 4 3 2 5 5 5 6 5 4 4 4 5 3 3 7 7 7 1 8 12 19 15 12 3 8 3 16 10 36 26 18 7 9 27 8 7 5 6 6 9 14 19 19 21
4 7 6 4 1 5 8 7 6 6 8 6 6 8 8 9 5 6 6 4 6 12 17 11 4 6 16 6 5 26 25 24 13 10 17 36 13 17 11 11 11 14 16 18 19
5 3 1 7 6 14 8 5 10 8 5 7 4 3 8 4 10 3 7 5 6 5 6 9 6 5 15 17 13 6 30 28 38 30 16 14 19 11 15 17 18 17 17 19 21
3 4 4 6 7 11 4 2 7 9 6 7 3 11 12 7 9 12 9 4 3 4 2 7 6 14 13 19 13 16 14 30 34 28 26 13 18 18 12 4 12 22 22 22 22
3 3 2 5 8 7 4 6 9 19 10 10 11 17 19 16 7 16 16 15 11 4 5 2 4 10 5 14 9 18 31 17 22 30 23 24 29 7 13 15 17 22 25 27 25
Wind_Direction
349 346 341 339 338 339 338 329 324 327 331 335 338 339 341 334 324 330 265 229 207 170 163 131 128 164 188 183 153 120 224 239 233 223 256 195 264 144 346 280 281 256 250 259 232
347 341 338 338 338 333 329 329 328 320 320 326 332 335 334 331 317 270 242 253 229 173 176 167 160 163 203 199 184 184 215 231 213 210 254 275 273 304 320 311 291 276 273 266 177
342 342 342 338 332 331 331 328 325 326 322 321 326 328 329 331 308 265 261 234 236 191 195 180 150 172 204 185 200 195 223 239 262 234 228 283 286 295 288 291 281 291 297 281 206
339 335 334 332 332 330 324 324 322 320 321 324 325 326 324 310 249 49 78 36 313 194 182 176 163 187 202 212 212 221 224 238 259 279 283 268 295 286 278 266 276 285 280 275 225
342 341 336 330 326 323 321 319 317 318 316 314 315 323 347 260 237 261 306 340 36 172 188 169 174 182 216 213 221 221 238 252 261 281 278 277 268 267 286 282 279 277 289 269 240
337 337 336 332 328 321 315 314 312 310 308 308 309 311 269 255 246 294 356 336 206 240 215 187 189 193 208 225 218 216 227 251 261 269 275 274 275 285 267 270 284 282 280 267 243
338 336 333 331 328 324 320 314 308 303 302 298 298 293 258 245 265 291 302 286 322 241 235 229 245 185 195 253 237 245 262 270 252 253 255 269 277 257 267 277 269 272 271 268 246
335 334 334 331 326 323 322 314 308 297 291 284 286 285 258 264 245 257 264 273 253 263 278 234 247 253 208 267 351 244 231 264 175 227 256 200 271 271 274 262 265 268 275 273 263
332 331 332 330 327 326 322 314 303 297 290 259 242 230 275 305 253 249 235 235 259 220 227 274 195 216 166 221 259 258 254 260 285 258 254 231 282 275 277 273 279 281 280 279 274
330 329 327 327 327 327 325 316 303 65 91 135 231 252 266 247 299 249 201 202 208 169 165 198 209 201 202 187 222 220 254 243 243 274 225 262 260 278 280 275 269 273 279 279 274
328 328 325 326 326 325 333 336 16 353 256 242 195 239 294 300 332 268 159 166 197 175 183 176 201 217 213 209 208 218 234 243 253 204 242 255 273 280 282 269 272 278 277 281 279
329 328 327 325 324 324 323 293 40 2 300 253 246 238 247 260 283 289 143 146 184 196 172 178 218 218 200 196 210 212 229 242 266 244 247 279 283 289 288 279 271 276 281 277 270
326 326 328 327 320 21 335 269 334 329 259 279 234 238 233 222 231 255 248 167 184 187 190 202 225 205 190 195 203 218 222 235 245 1 284 299 294 289 284 277 273 263 266 274 274
320 320 322 331 351 333 298 312 328 312 302 272 219 242 209 219 244 237 230 194 201 200 196 225 230 193 201 210 194 220 214 233 249 264 264 132 290 290 298 301 286 294 301 276 254
316 318 319 334 298 295 289 324 326 163 309 263 170 168 254 188 304 230 207 221 210 172 178 212 202 212 207 203 195 227 205 219 243 251 262 261 269 262 292 288 280 280 288 284 193
320 322 322 303 235 255 310 313 150 189 246 281 49 343 323 258 258 304 174 229 206 199 223 205 211 202 215 203 203 191 145 160 233 239 253 247 232 268 252 244 260 267 287 302 151
328 319 310 285 266 151 348 338 159 221 318 16 348 354 356 346 11 306 243 194 197 199 212 200 235 226 178 175 179 176 161 197 237 230 250 232 216 243 260 241 242 259 263 164 162
326 314 263 266 279 258 165 152 220 272 269 338 346 345 323 3 338 351 320 209 228 234 192 190 196 202 190 192 176 184 178 174 204 221 247 218 222 234 228 242 245 256 247 164 164
328 322 319 281 293 200 203 210 241 352 4 344 340 357 335 9 345 342 336 7 21 227 249 199 222 180 181 179 175 188 209 177 194 209 215 234 256 261 234 225 227 221 176 177 169
330 332 359 331 156 174 188 246 285 338 337 336 6 348 336 348 331 351 325 37 355 353 329 256 207 211 193 175 192 184 154 185 215 216 224 259 251 219 184 224 253 229 203 178 164
13 15 339 0 283 128 203 249 284 287 324 262 296 321 315 313 315 325 295 310 360 1 348 341 222 180 173 199 179 157 184 166 182 190 207 220 247 217 188 194 208 211 194 176 172
346 39 311 351 269 135 261 279 298 295 292 275 272 243 257 293 313 300 277 287 326 341 344 334 315 212 211 158 201 203 185 181 200 196 203 168 273 230 228 219 236 193 173 176 167
333 286 307 319 46 2 299 288 266 293 302 328 304 274 333 310 327 343 82 265 331 336 348 346 289 178 162 229 204 201 200 186 136 153 207 209 231 329 255 245 261 208 170 167 166
347 347 327 27 88 330 330 300 312 293 277 269 261 277 296 307 272 271 278 280 300 314 324 328 270 251 196 211 141 205 203 200 185 200 188 219 239 239 254 228 199 175 169 165 166
17 340 350 317 336 321 309 287 326 337 334 314 314 328 341 288 311 258 357 296 276 22 17 351 279 301 280 274 301 307 204 203 212 217 203 203 213 225 232 219 198 167 159 162 172
347 337 328 295 297 321 325 279 307 299 318 309 245 324 318 268 262 287 299 1 296 132 93 332 294 346 280 278 276 272 262 216 213 220 223 224 244 229 260 185 179 174 171 180 184
326 295 263 282 312 329 297 334 313 317 294 245 291 311 298 288 316 294 280 267 248 190 192 209 306 350 268 337 318 256 243 236 224 215 202 211 228 184 227 223 206 181 183 188 188